sat.trackr.live / text

‹ back to catalog

FLOCK 4H-19

NORAD 66722 · 2025-276BJ

PAYLOAD ACTIVE UNKNOWN

§ Identity

Operator
Country
US
Launch date
2025-11-28
Launch site
AFWTR
Launch vehicle
Mass (kg)
RCS (m²)

Purposes: earth_obs

External: N2YO · Heavens-Above · Gunter

§ Orbital elements

Epoch: 2026-05-25T03:46:08.590368Z

Period
94.69 min
Inclination
97.4185°
Eccentricity
0.0002319
Mean motion
15.20736632 rev/d
Perigee alt
502.0 km
Apogee alt
505.2 km
Semi-major
6,881.8 km
B*
2.3462e-4
RAAN
219.3431°
Arg perigee
57.2897°
Mean anomaly
302.8562°
Rev number
2,623

§ Raw data

FLOCK 4H-191 66722U 25276BJ  26145.15704387  .00005094  00000+0  23462-3 0  99952 66722  97.4185 219.3431 0002319  57.2897 302.8562 15.20736632 26239

JSON: /api/v1/satellites/66722 · /tle

For live sub-satellite position, see the globe view (requires WebGL).

§ Visibility from observer

Set your observer location to see the next 7 days of passes ≥ 10°. The values pass through the URL so the page stays shareable.

No JS? Fill the form by hand. The geolocation button needs JavaScript.